Middlebury State AP, Middlebu, VT

11:40 PM EST on November 19, 2017 (GMT -0500)
Middlebury State AP, Middlebu

Weather History for K6B0 - March, 2014

Change the Weather History Date:

Thursday, March 13, 2014

  Actual Average (KRUT) Record (KRUT)
Temperature  
Mean Temperature 8 °F -  
Max Temperature 16 °F 41 °F 79 °F (1984)
Min Temperature -1 °F 19 °F -3 °F (1989)
Degree Days  
Heating Degree Days 57    
Moisture  
Dew Point 2 °F    
Average Humidity 75    
Maximum Humidity 95    
Minimum Humidity 40    
Precipitation  
Precipitation 0.01 in - - ()
Sea Level Pressure  
Sea Level Pressure 29.61 in    
Wind  
Wind Speed 14 mph (WNW)    
Max Wind Speed 21 mph    
Max Gust Speed 31 mph    
Visibility 5 miles    
Events Snow    
Averages and records for this station are not official NWS values.
T = Trace of Precipitation, MM = Missing Value Source: NWS Daily Summary

Daily Weather History Graph

Daily Weather History Graph

Search for Another Location

Airport or City:

Trip Planner

Search our weather history database for the weather conditions in past years. The results will help you decide how hot, cold, wet, or windy it might be!

Date:

Astronomy

Mar. 13, 2014 Rise Set
Actual Time 7:08 AM EDT 6:56 PM EDT
Civil Twilight 6:39 AM EDT 7:24 PM EDT
Nautical Twilight 6:06 AM EDT 7:58 PM EDT
Astronomical Twilight 5:32 AM EDT 8:32 PM EDT
Moon 4:15 PM EDT (3/13) 5:18 AM EDT (3/13)
Length of Visible Light 12h 45m
Length of Day
11h 47m
Waxing Gibbous, 91% of the Moon is Illuminated
Mar 13
Waxing Gibbous
Mar 16
Full
Mar 23
Last Quarter
Mar 30
New
Apr 7
First Quarter

Hourly Weather History & Observations

Time (EDT) Temp. Windchill Dew Point Humidity Pressure Visibility Wind Dir Wind Speed Gust Speed Precip Events Conditions
12:15 AM 14.5 °F -0.2 °F 13.5 °F 95% 29.33 in 0.8 mi West 13.8 mph 18.4 mph N/A Snow Snow
12:35 AM 13.8 °F -2.2 °F 12.4 °F 94% 29.34 in 1.0 mi WNW 16.1 mph 25.3 mph N/A Snow Light Snow
12:55 AM 12.7 °F -4.6 °F 11.1 °F 93% 29.32 in 0.8 mi WNW 18.4 mph 31.1 mph N/A Snow Snow
1:15 AM 12.0 °F -4.5 °F 10.2 °F 92% 29.34 in 1.0 mi WNW 16.1 mph 28.8 mph N/A Snow Snow
1:35 AM 11.3 °F -5.5 °F 9.5 °F 92% 29.34 in 1.2 mi WNW 16.1 mph 24.2 mph N/A Snow Light Snow
1:55 AM 11.3 °F -6.5 °F 8.4 °F 88% 29.37 in 1.5 mi WNW 18.4 mph 29.9 mph N/A Snow Light Snow
2:15 AM 10.8 °F -7.7 °F 7.9 °F 88% 29.37 in 1.5 mi WNW 19.6 mph 24.2 mph N/A Snow Light Snow
2:35 AM 10.4 °F -7.7 °F 7.3 °F 87% 29.39 in 2.0 mi WNW 18.4 mph 27.6 mph N/A Snow Light Snow
2:55 AM 10.2 °F -4.3 °F 7.7 °F 90% 29.39 in 1.8 mi WNW 11.5 mph 20.7 mph N/A Snow Light Snow
3:15 AM 9.9 °F -4.7 °F 7.5 °F 90% 29.39 in 1.5 mi NW 11.5 mph 25.3 mph N/A Snow Light Snow
3:35 AM 9.9 °F -6.1 °F 6.8 °F 87% 29.38 in 1.5 mi WNW 13.8 mph 25.3 mph N/A Snow Light Snow
3:55 AM 9.5 °F -8.3 °F 6.8 °F 89% 29.38 in 1.5 mi WNW 17.3 mph 27.6 mph N/A Snow Light Snow
4:15 AM 9.5 °F -8.3 °F 6.1 °F 86% 29.40 in 1.5 mi WNW 17.3 mph 27.6 mph N/A Snow Light Snow
4:35 AM 9.3 °F -8.0 °F 5.9 °F 86% 29.40 in 1.8 mi WNW 16.1 mph 31.1 mph N/A Snow Light Snow
4:55 AM 9.1 °F -8.8 °F 5.9 °F 87% 29.41 in 1.5 mi NW 17.3 mph 27.6 mph N/A Snow Light Snow
5:15 AM 8.6 °F -7.0 °F 6.4 °F 91% 29.41 in 1.2 mi WNW 12.7 mph 21.9 mph N/A Snow Light Snow
5:35 AM 8.6 °F -10.0 °F 5.9 °F 89% 29.42 in 1.0 mi WNW 18.4 mph 26.5 mph N/A Snow Light Snow
5:55 AM 8.2 °F -10.5 °F 5.2 °F 87% 29.43 in 1.0 mi NW 18.4 mph 27.6 mph N/A Snow Light Snow
6:15 AM 8.2 °F -6.8 °F 5.4 °F 88% 29.44 in 1.2 mi WNW 11.5 mph 23.0 mph N/A Snow Light Snow
6:35 AM 8.1 °F -9.6 °F 4.3 °F 85% 29.46 in 1.2 mi WNW 16.1 mph 31.1 mph N/A Snow Light Snow
6:55 AM 7.7 °F -9.5 °F 5.0 °F 89% 29.47 in 1.5 mi WNW 15.0 mph 25.3 mph N/A Snow Light Snow
7:15 AM 7.7 °F -6.6 °F 4.5 °F 87% 29.48 in 2.0 mi WNW 10.4 mph 24.2 mph N/A Snow Light Snow
7:35 AM 7.7 °F -11.2 °F 5.0 °F 89% 29.49 in 0.5 mi WNW 18.4 mph 27.6 mph N/A Snow Light Snow
7:55 AM 7.7 °F -11.2 °F 4.8 °F 88% 29.50 in 0.8 mi WNW 18.4 mph 24.2 mph N/A Snow Light Snow
8:15 AM 7.5 °F -11.9 °F 3.7 °F 85% 29.51 in 0.8 mi NW 19.6 mph 29.9 mph N/A Snow Light Snow
8:35 AM 7.0 °F -12.1 °F 3.6 °F 86% 29.52 in 0.8 mi WNW 18.4 mph 26.5 mph N/A Snow Light Snow
8:55 AM 6.8 °F -11.8 °F 3.7 °F 87% 29.53 in 0.5 mi WNW 17.3 mph 25.3 mph N/A Snow Light Snow
9:15 AM 6.8 °F -12.4 °F 3.9 °F 88% 29.54 in 0.5 mi NW 18.4 mph 24.2 mph N/A Snow Light Snow
9:35 AM 7.2 °F -10.8 °F 3.7 °F 86% 29.55 in 0.5 mi WNW 16.1 mph 25.3 mph N/A Snow Light Snow
9:55 AM 7.3 °F -10.0 °F 4.1 °F 87% 29.55 in 0.5 mi NW 15.0 mph 23.0 mph N/A Snow Light Snow
10:15 AM 7.5 °F -12.4 °F 2.3 °F 79% 29.56 in 1.0 mi WNW 20.7 mph 27.6 mph N/A Snow Light Snow
10:35 AM 8.1 °F -9.6 °F 1.9 °F 76% 29.57 in 2.0 mi WNW 16.1 mph 27.6 mph N/A   Haze
10:55 AM 8.4 °F -7.3 °F 1.9 °F 75% 29.59 in 2.0 mi WNW 12.7 mph 25.3 mph N/A   Haze
11:15 AM 9.1 °F -9.3 °F 1.2 °F 70% 29.59 in 2.5 mi WNW 18.4 mph 27.6 mph N/A   Haze
11:35 AM 8.6 °F -4.7 °F 3.9 °F 81% 29.60 in 0.5 mi WNW 9.2 mph 20.7 mph N/A Snow Light Snow
11:55 AM 9.0 °F -7.9 °F 4.8 °F 83% 29.61 in 0.5 mi West 15.0 mph 20.7 mph N/A Snow Light Snow
12:15 PM 9.1 °F -8.8 °F 1.8 °F 72% 29.61 in 1.2 mi WNW 17.3 mph 25.3 mph N/A Snow Light Snow
12:35 PM 10.2 °F -7.4 °F 1.2 °F 67% 29.61 in 3.0 mi WNW 17.3 mph 26.5 mph N/A   Haze
12:55 PM 10.4 °F -6.0 °F 1.8 °F 68% 29.61 in 3.0 mi NW 15.0 mph 25.3 mph N/A   Haze
1:15 PM 11.1 °F -3.2 °F 2.7 °F 69% 29.61 in 3.0 mi NW 11.5 mph 23.0 mph N/A   Haze
1:35 PM 12.7 °F -1.8 °F 3.7 °F 67% 29.62 in 5.0 mi WNW 12.7 mph 19.6 mph N/A   Haze
1:55 PM 12.4 °F -2.3 °F 3.7 °F 68% 29.63 in 4.0 mi WNW 12.7 mph 21.9 mph N/A   Haze
2:15 PM 12.2 °F -3.7 °F 3.7 °F 69% 29.63 in 7.0 mi WNW 15.0 mph 24.2 mph N/A   Overcast
2:35 PM 12.7 °F -3.0 °F 3.6 °F 67% 29.64 in 7.0 mi WNW 15.0 mph - N/A   Overcast
2:55 PM 12.7 °F -2.5 °F 4.1 °F 68% 29.65 in 7.0 mi West 13.8 mph 19.6 mph N/A   Mostly Cloudy
3:15 PM 14.4 °F -1.0 °F 5.0 °F 66% 29.66 in 5.0 mi WNW 15.0 mph 23.0 mph N/A   Haze
3:35 PM 14.4 °F -1.0 °F 3.9 °F 63% 29.67 in 10.0 mi NW 15.0 mph 20.7 mph N/A   Overcast
3:55 PM 14.9 °F 3.1 °F 2.7 °F 58% 29.68 in 10.0 mi WNW 9.2 mph 17.3 mph N/A   Mostly Cloudy
4:15 PM 15.6 °F 1.2 °F -0.2 °F 50% 29.69 in 10.0 mi WNW 13.8 mph 19.6 mph N/A   Scattered Clouds
4:35 PM 15.4 °F 3.0 °F -2.2 °F 46% 29.69 in 10.0 mi WNW 10.4 mph 19.6 mph N/A   Clear
4:55 PM 15.8 °F 2.1 °F -2.9 °F 44% 29.70 in 10.0 mi WNW 12.7 mph 18.4 mph N/A   Clear
5:15 PM 16.3 °F 2.1 °F -3.6 °F 41% 29.72 in 10.0 mi WNW 13.8 mph 17.3 mph N/A   Clear
5:35 PM 16.3 °F 5.7 °F -4.4 °F 40% 29.73 in 10.0 mi WNW 8.1 mph - N/A   Clear
5:55 PM 15.8 °F 4.2 °F -4.5 °F 40% 29.74 in 10.0 mi West 9.2 mph 17.3 mph N/A   Clear
6:15 PM 15.6 °F 3.2 °F -4.4 °F 41% 29.76 in 10.0 mi West 10.4 mph 17.3 mph N/A   Clear
6:35 PM 14.9 °F 5.0 °F -4.0 °F 43% 29.78 in 10.0 mi West 6.9 mph - N/A   Clear
6:55 PM 13.1 °F 4.0 °F -4.5 °F 45% 29.79 in 10.0 mi WNW 5.8 mph - N/A   Clear
7:15 PM 12.0 °F 5.9 °F -4.9 °F 47% 29.81 in 10.0 mi West 3.5 mph - N/A   Clear
7:35 PM 10.4 °F 4.0 °F -5.1 °F 50% 29.83 in 10.0 mi WNW 3.5 mph - N/A   Clear
7:55 PM 9.1 °F - -4.2 °F 55% 29.85 in 10.0 mi Calm Calm - N/A   Clear
8:15 PM 7.5 °F - -1.5 °F 67% 29.86 in 10.0 mi Calm Calm - N/A   Clear
8:35 PM 5.4 °F - -2.7 °F 69% 29.88 in 10.0 mi Calm Calm - N/A   Clear
8:55 PM 4.5 °F - -3.3 °F 70% 29.89 in 10.0 mi Calm Calm - N/A   Clear
9:15 PM 4.3 °F - -2.2 °F 75% 29.90 in 10.0 mi Calm Calm - N/A   Clear
9:35 PM 3.7 °F - -2.2 °F 76% 29.91 in 10.0 mi Calm Calm - N/A   Clear
9:55 PM 3.0 °F - -3.3 °F 75% 29.92 in 10.0 mi Calm Calm - N/A   Clear
10:15 PM 1.4 °F - -4.2 °F 77% 29.92 in 10.0 mi Calm Calm - N/A   Clear
10:35 PM 2.3 °F -5.2 °F -3.5 °F 77% 29.93 in 10.0 mi SE 3.5 mph - N/A   Clear
10:55 PM 0.7 °F - -4.4 °F 79% 29.93 in 10.0 mi Calm Calm - N/A   Clear
11:15 PM 0.5 °F - -4.4 °F 80% 29.94 in 10.0 mi Calm Calm - N/A   Clear
11:35 PM -0.2 °F - -4.2 °F 83% 29.95 in 10.0 mi Calm Calm - N/A   Clear
11:55 PM -1.3 °F - -5.6 °F 82% 29.96 in 10.0 mi Calm Calm - N/A   Clear